Orbital Elements at Epoch 2459200.5 (2020-Dec-17.0) TDB
Reference: JPL 17 (heliocentric ecliptic J2000)
Element | Value | Uncertainty (1-sigma) | Units |
e | .06022821646506234 | 6.8417e-08 | |
a | 3.097727525186758 | 2.5823e-08 | au |
q | 2.911156921250028 | 2.2753e-07 | au |
i | 10.82716039437775 | 4.4332e-06 | deg |
node | 209.9141646764821 | 2.2227e-05 | deg |
peri | 132.9266972493812 | 4.9843e-05 | deg |
M | 1.439625301117908 | 3.9652e-05 | deg |
tp | 2459192.536385679350 (2020-Dec-09.03638568) | 0.00021938 | TDB |
period | 1991.421763154562 5.45 | 2.4901e-05 6.818e-08 | d yr |
n | .1807753669567881 | 2.2604e-09 | deg/d |
Q | 3.284298129123488 | 2.7378e-08 | au |
|
| | Orbit Determination Parameters
Additional Information
|